This demonstration page uses our WeatherBlox Daily Observations layout. Learn more.

Left ArrowRight Arrow

30.00354, -91.81873

Hourly Observations for September 27, 2022

Temp ( °F °C ) Dew Point ( °F °C ) Humidity (%) Winds ( mph kmh ) Pressure ( in mb ) Visibility ( mi km ) Precip ( " mm )
12:53 am 00:53 Clear 65 18.3 57 13.9 76 76 N 7 11 30.01 1016 10 16 0.00 0.00
1:53 am 01:53 Clear 64 17.8 56 13.3 75 75 NNE 7 11 30.02 1017 10 16 0.00 0.00
2:53 am 02:53 Clear 62 16.7 55 12.8 78 78 N 8 13 30.01 1016 10 16 0.00 0.00
3:53 am 03:53 Clear 63 17.2 54 12.2 72 72 NNE 8 13 30.01 1016 10 16 0.00 0.00
4:53 am 04:53 Clear 64 17.8 54 12.2 70 70 NE 8 13 30.01 1016 10 16 0.00 0.00
5:53 am 05:53 Clear 60 15.6 54 12.2 80 80 N 8 13 30.02 1017 10 16 0.00 0.00
6:53 am 06:53 Clear 59 15 52 11.1 77 77 N 9 15 30.04 1017 10 16 0.00 0.00
7:53 am 07:53 Sunny 64 17.8 54 12.2 70 70 NNE 8 13 30.06 1018 10 16 0.00 0.00
8:53 am 08:53 Sunny 69 20.6 52 11.1 54 54 NE 10 17 30.09 1019 10 16 0.00 0.00
9:53 am 09:53 Sunny 74 23.3 51 10.6 45 45 ENE 10 17 30.10 1019 10 16 0.00 0.00
10:53 am 10:53 Sunny 79 26.1 45 7.2 30 30 NE 17 28 30.09 1019 10 16 0.00 0.00
11:53 am 11:53 Sunny 81 27.2 45 7.2 28 28 NE 22 35 30.09 1019 10 16 0.00 0.00
12:53 pm 12:53 Sunny 82 27.8 43 6.1 25 25 NE 16 26 30.08 1019 10 16 0.00 0.00
1:53 pm 13:53 Sunny 83 28.3 46 7.8 28 28 NNE 16 26 30.06 1018 10 16 0.00 0.00
2:53 pm 14:53 Sunny 84 28.9 45 7.2 26 26 NNE 16 26 30.04 1017 10 16 0.00 0.00
3:53 pm 15:53 Sunny 84 28.9 46 7.8 27 27 NNE 14 22 30.02 1017 10 16 0.00 0.00
4:53 pm 16:53 Sunny 83 28.3 46 7.8 28 28 N 16 26 30.02 1017 10 16 0.00 0.00
5:53 pm 17:53 Sunny 81 27.2 48 8.9 32 32 N 13 20 30.04 1017 10 16 0.00 0.00
6:53 pm 18:53 Sunny 74 23.3 50 10 43 43 N 7 11 30.05 1018 10 16 0.00 0.00
7:53 pm 19:53 Clear 69 20.6 51 10.6 53 53 N 7 11 30.06 1018 10 16 0.00 0.00
8:53 pm 20:53 Clear 67 19.4 51 10.6 57 57 NNE 9 15 30.08 1019 10 16 0.00 0.00
9:53 pm 21:53 Clear 67 19.4 50 10 55 55 N 9 15 30.10 1019 10 16 0.00 0.00
10:53 pm 22:53 Clear 65 18.3 50 10 58 58 N 9 15 30.11 1020 10 16 0.00 0.00
11:53 pm 23:53 Clear 65 18.3 50 10 58 58 N 9 15 30.11 1020 10 16 0.00 0.00

Powered by AerisWeather